Miscellaneous Local Product
Issued by NWS North Platte, NE

Home | Current Version | Previous Version | Graphics & Text | Print | Product List | Glossary On
Versions: 1 2 3 4 5 6 7 8 9 10 11 12 13 14 15 16 17 18 19 20 21 22 23 24 25 26 27 28 29 30 31 32 33 34 35 36 37 38 39 40 41 42 43 44 45 46 47 48 49 50
000
AXUS43 KLBF 032210
MISLBF


WESTERN AND NORTH CENTRAL NEBRASKA HOURLY WEATHER ROUNDUP
NATIONAL WEATHER SERVICE NORTH PLATTE NE
500 PM CDT FRI JUL 03 2015

***STATIONS NOT REPORTING VARIABLES SUCH AS SKY/WEATHER OR
PRESSURE ARE PROVIDED BY THE NEBRASKA DEPARTMENT OF
ROADS...RAWS...AND APRS NETWORKS...AND ARE NOT UNDER
NATIONAL WEATHER SERVICE QUALITY CONTROL***

...OBSERVATIONS IN AND NEAR THE EASTERN PANHANDLE OF NEBRASKA...

CITY           SKY/WX    TMP DP  RH WIND       PRES   REMARKS
PINE RIDGE     SUNNY     81  57  43 S5        30.02F
CHADRON        SUNNY     84  54  35 E5        30.00F
ALLIANCE       SUNNY     82  57  42 CALM      30.04F
SIDNEY         SUNNY     84  56  38 SE12      30.07F
WHITECLAY        N/A     83  56  39 CALM        N/A
CRESCENT LAKE    N/A     83  54  36 NE6         N/A
BIG SPRINGS      N/A     84  58  40 NE5         N/A
$$

...OBSERVATIONS IN NORTH CENTRAL NEBRASKA...

CITY           SKY/WX    TMP DP  RH WIND       PRES   REMARKS
VALENTINE      MOSUNNY   83  59  44 CALM      30.00F
THEDFORD       SUNNY     82  60  46 NW5       30.02F
AINSWORTH      SUNNY     81  59  46 NE5       30.01F
O`NEILL        SUNNY     80  62  55 CALM      29.99F
ORD            PTSUNNY   82  59  45 E5        29.97F
BROKEN BOW     MOSUNNY   81  60  48 SW6       30.00F
VALENTINE NWR    N/A     83  61  46 CALM        N/A
SPRINGVIEW       N/A     84  64  50 CALM        N/A
HALSEY           N/A     81  57  43 CALM        N/A
BREWSTER         N/A     86  58  38 CALM        N/A
ROSE             N/A     92  70  48 CALM        N/A  HX  97
NEWPORT          N/A     81  61  49 CALM        N/A
SARGENT          N/A     83  59  44 CALM        N/A
CHAMBERS         N/A     86  61  43 CALM        N/A
EWING            N/A     80  67  63 CALM        N/A
$$

...OBSERVATIONS IN SOUTHWEST NEBRASKA AND FAR NORTHEAST COLORADO...

CITY           SKY/WX    TMP DP  RH WIND       PRES   REMARKS
WRAY           FAIR      88  51  27 CALM      30.03F
HOLYOKE        FAIR      86  54  32 SE3       30.04F
IMPERIAL       SUNNY     87  53  31 VRB5      30.02F
OGALLALA       MOSUNNY   83  54  37 N3        30.03F
NORTH PLATTE   SUNNY     83  58  42 VRB3      30.01F
MCCOOK         PTSUNNY   82  61  48 E8        30.00F
LEXINGTON      SUNNY     82  59  45 CALM      30.00F
PAXTON           N/A     84  60  43 CALM        N/A
GOTHENBURG       N/A     82  56  40 E3          N/A
CALLAWAY         N/A     83  66  56 S3          N/A
$$

...NORTH PLATTE AREA...

CITY           SKY/WX    TMP DP  RH WIND       PRES   REMARKS
AIRPORT        SUNNY     83  58  42 VRB3      30.01F
DOWNTOWN         N/A     82  58  44 MISG        N/A
HILLCREST        N/A     82  58  44 E3          N/A
$$

...SOME WEATHER OBSERVATIONS FROM AROUND THE REGION...

CITY           SKY/WX    TMP DP  RH WIND       PRES   REMARKS
DENVER         MOSUNNY   84  56  38 E7        30.10F
LARAMIE        SUNNY     81  39  22 E9G18     30.20F
CHEYENNE       MOSUNNY   80  56  43 VRB6      30.15F
SCOTTSBLUFF    SUNNY     86  55  34 VRB7      30.03F
RAPID CITY     SUNNY     80  61  52 SE9       30.00F
PIERRE         MOSUNNY   81  62  52 W6        29.95F HAZE
WINNER         FAIR      86  52  30 CALM      29.96F
SIOUX FALLS    PTSUNNY   78  62  57 VRB3      29.97F
OMAHA          SUNNY     79  55  43 NW6       29.97F
GRAND ISLAND   MOSUNNY   76  61  59 SE5       30.01F
KANSAS CITY    SUNNY     79  54  41 N6        29.95F
WICHITA        MOSUNNY   85  62  46 NE10G20   29.93F
HAYS           SUNNY     84  59  42 NE14      29.98F
LIBERAL        PTSUNNY   72  59  64 CALM        N/A
GOODLAND       MOSUNNY   83  55  38 SE5       30.03F
$$



USA.gov is the U.S. government's official web portal to all federal, state and local government web resources and services.